When you browse on this site, cookies collect data to enhance your experience and personalize the content and advertising you see.
Visit our Privacy Policy to learn more. By continuing to use the site, you agree to this use of cookies and data.

Hourly Weather Guararapes

Today, 7 August, Friday

Time Temperature Precipitation Wind Pressure Humidity
00:00 +18°C° 0 mm 4 mps 730 mmHg 45%
01:00 +17°C° 0 mm 4 mps 729 mmHg 47%
02:00 +17°C° 0 mm 4 mps 729 mmHg 50%
03:00 +17°C° 0 mm 4 mps 729 mmHg 52%
04:00 +15°C° 0 mm 4 mps 729 mmHg 53%
05:00 +14°C° 0 mm 3 mps 729 mmHg 55%
06:00 +14°C° 0 mm 3 mps 729 mmHg 56%
07:00 +17°C° 0 mm 4 mps 730 mmHg 51%
08:00 +18°C° 0 mm 4 mps 730 mmHg 46%
09:00 +20°C° 0 mm 4 mps 731 mmHg 41%
10:00 +23°C° 0 mm 4 mps 731 mmHg 36%
11:00 +27°C° 0 mm 4 mps 731 mmHg 32%
12:00 +29°C° 0 mm 4 mps 731 mmHg 27%
13:00 +30°C° 0 mm 3 mps 730 mmHg 25%
14:00 +31°C° 0 mm 3 mps 730 mmHg 23%
15:00 +31°C° 0 mm 2 mps 729 mmHg 21%
16:00 +29°C° 0 mm 2 mps 729 mmHg 24%
17:00 +27°C° 0 mm 2 mps 728 mmHg 26%
18:00 +25°C° 0 mm 1 mps 728 mmHg 29%
19:00 +24°C° 0 mm 2 mps 728 mmHg 33%
20:00 +23°C° 0 mm 2 mps 728 mmHg 36%
21:00 +20°C° 0 mm 3 mps 729 mmHg 39%
22:00 +20°C° 0 mm 3 mps 729 mmHg 40%
23:00 +19°C° 0 mm 3 mps 729 mmHg 40%

Tomorrow, 8 August, Saturday

Time Temperature Precipitation Wind Pressure Humidity
00:00 +18°C° 0 mm 3 mps 729 mmHg 41%
01:00 +18°C° 0 mm 3 mps 729 mmHg 42%
02:00 +18°C° 0 mm 3 mps 728 mmHg 43%
03:00 +17°C° 0 mm 3 mps 728 mmHg 44%
04:00 +17°C° 0 mm 3 mps 728 mmHg 46%
05:00 +16°C° 0 mm 3 mps 728 mmHg 48%
06:00 +15°C° 0 mm 2 mps 728 mmHg 49%
07:00 +17°C° 0 mm 3 mps 729 mmHg 47%
08:00 +19°C° 0 mm 3 mps 730 mmHg 44%
09:00 +21°C° 0 mm 4 mps 730 mmHg 41%
10:00 +23°C° 0 mm 4 mps 730 mmHg 38%
11:00 +27°C° 0 mm 4 mps 730 mmHg 34%
12:00 +30°C° 0 mm 3 mps 730 mmHg 30%
13:00 +30°C° 0 mm 3 mps 730 mmHg 28%
14:00 +31°C° 0 mm 2 mps 729 mmHg 26%
15:00 +32°C° 0 mm 2 mps 728 mmHg 24%
16:00 +30°C° 0 mm 2 mps 728 mmHg 26%
17:00 +28°C° 0 mm 1 mps 727 mmHg 29%
18:00 +26°C° 0 mm 1 mps 727 mmHg 32%
19:00 +26°C° 0 mm 2 mps 727 mmHg 33%
20:00 +25°C° 0 mm 2 mps 728 mmHg 35%
21:00 +24°C° 0 mm 2 mps 728 mmHg 36%
22:00 +23°C° 0 mm 2 mps 728 mmHg 40%
23:00 +21°C° 0 mm 2 mps 728 mmHg 43%

Day after tomorrow, 9 August, Sunday

Time Temperature Precipitation Wind Pressure Humidity
00:00 +20°C° 0 mm 2 mps 728 mmHg 46%
01:00 +19°C° 0 mm 3 mps 728 mmHg 48%
02:00 +19°C° 0 mm 3 mps 727 mmHg 50%
03:00 +18°C° 0 mm 3 mps 727 mmHg 52%
04:00 +17°C° 0 mm 3 mps 727 mmHg 52%
05:00 +17°C° 0 mm 3 mps 727 mmHg 52%
06:00 +16°C° 0 mm 3 mps 727 mmHg 52%
07:00 +18°C° 0 mm 3 mps 728 mmHg 47%
08:00 +20°C° 0 mm 3 mps 728 mmHg 42%
09:00 +22°C° 0 mm 4 mps 729 mmHg 37%
10:00 +25°C° 0 mm 4 mps 729 mmHg 33%
11:00 +28°C° 0 mm 4 mps 729 mmHg 29%
12:00 +32°C° 0 mm 4 mps 729 mmHg 26%
13:00 +31°C° 0 mm 3 mps 728 mmHg 24%
14:00 +33°C° 0 mm 3 mps 727 mmHg 23%
15:00 +32°C° 0 mm 2 mps 726 mmHg 22%
16:00 +30°C° 0 mm 2 mps 726 mmHg 24%
17:00 +28°C° 0 mm 2 mps 725 mmHg 27%
18:00 +27°C° 0 mm 1 mps 725 mmHg 30%
19:00 +25°C° 0 mm 1 mps 725 mmHg 33%
20:00 +24°C° 0 mm 2 mps 725 mmHg 35%
21:00 +21°C° 0 mm 2 mps 726 mmHg 38%
22:00 +21°C° 0 mm 2 mps 725 mmHg 39%
23:00 +20°C° 0 mm 3 mps 725 mmHg 41%

10 August, Monday

Time Temperature Precipitation Wind Pressure Humidity
00:00 +20°C° 0 mm 3 mps 725 mmHg 42%
01:00 +19°C° 0 mm 3 mps 725 mmHg 43%
02:00 +19°C° 0 mm 3 mps 725 mmHg 45%
03:00 +18°C° 0 mm 3 mps 724 mmHg 46%
04:00 +18°C° 0 mm 3 mps 724 mmHg 48%
05:00 +17°C° 0 mm 3 mps 724 mmHg 50%
06:00 +17°C° 0 mm 3 mps 724 mmHg 52%
07:00 +19°C° 0 mm 3 mps 725 mmHg 49%
08:00 +21°C° 0 mm 4 mps 726 mmHg 45%
09:00 +23°C° 0 mm 4 mps 726 mmHg 41%
10:00 +27°C° 0 mm 4 mps 726 mmHg 35%
11:00 +30°C° 0 mm 5 mps 726 mmHg 30%
12:00 +34°C° 0 mm 5 mps 726 mmHg 25%
13:00 +34°C° 0 mm 4 mps 725 mmHg 23%
14:00 +35°C° 0 mm 3 mps 725 mmHg 21%
15:00 +35°C° 0 mm 2 mps 724 mmHg 19%
16:00 +32°C° 0 mm 2 mps 723 mmHg 21%
17:00 +31°C° 0 mm 2 mps 723 mmHg 23%
18:00 +29°C° 0 mm 1 mps 723 mmHg 26%
19:00 +27°C° 0 mm 1 mps 723 mmHg 28%
20:00 +26°C° 0 mm 2 mps 723 mmHg 30%
21:00 +25°C° 0 mm 2 mps 723 mmHg 32%
22:00 +24°C° 0 mm 2 mps 723 mmHg 33%
23:00 +23°C° 0 mm 2 mps 723 mmHg 35%

11 August, Tuesday

Time Temperature Precipitation Wind Pressure Humidity
00:00 +22°C° 0 mm 3 mps 723 mmHg 37%
01:00 +21°C° 0 mm 3 mps 723 mmHg 38%
02:00 +21°C° 0 mm 3 mps 723 mmHg 40%
03:00 +20°C° 0 mm 3 mps 722 mmHg 41%
04:00 +20°C° 0 mm 3 mps 722 mmHg 43%
05:00 +19°C° 0 mm 3 mps 722 mmHg 45%
06:00 +19°C° 0 mm 3 mps 722 mmHg 47%
07:00 +21°C° 0 mm 3 mps 723 mmHg 43%
08:00 +24°C° 0 mm 3 mps 724 mmHg 39%
09:00 +26°C° 0 mm 4 mps 725 mmHg 36%
10:00 +29°C° 0 mm 4 mps 725 mmHg 31%
11:00 +33°C° 0 mm 4 mps 725 mmHg 26%
12:00 +36°C° 0 mm 5 mps 725 mmHg 21%
13:00 +36°C° 0 mm 4 mps 724 mmHg 20%
14:00 +37°C° 0 mm 3 mps 723 mmHg 18%
15:00 +37°C° 0 mm 3 mps 723 mmHg 16%
16:00 +35°C° 0 mm 2 mps 722 mmHg 18%
17:00 +32°C° 0 mm 1 mps 722 mmHg 21%
18:00 +30°C° 0 mm 1 mps 721 mmHg 23%
19:00 +29°C° 0 mm 1 mps 722 mmHg 24%
20:00 +28°C° 0 mm 2 mps 722 mmHg 26%
21:00 +27°C° 0 mm 3 mps 722 mmHg 27%
22:00 +26°C° 0 mm 3 mps 722 mmHg 29%
23:00 +25°C° 0 mm 3 mps 722 mmHg 31%

12 August, Wednesday

Time Temperature Precipitation Wind Pressure Humidity
00:00 +24°C° 0 mm 3 mps 722 mmHg 33%
01:00 +22°C° 0 mm 4 mps 722 mmHg 35%
02:00 +22°C° 0 mm 4 mps 721 mmHg 36%
03:00 +22°C° 0 mm 4 mps 721 mmHg 37%
04:00 +21°C° 0 mm 4 mps 721 mmHg 39%
05:00 +21°C° 0 mm 3 mps 721 mmHg 40%
06:00 +20°C° 0 mm 3 mps 721 mmHg 41%
07:00 +23°C° 0 mm 4 mps 722 mmHg 37%
08:00 +26°C° 0 mm 4 mps 722 mmHg 34%
09:00 +28°C° 0 mm 5 mps 723 mmHg 30%
10:00 +30°C° 0 mm 5 mps 723 mmHg 26%
11:00 +34°C° 0 mm 6 mps 723 mmHg 22%
12:00 +38°C° 0 mm 7 mps 722 mmHg 18%
13:00 +38°C° 0 mm 6 mps 722 mmHg 17%
14:00 +39°C° 0 mm 6 mps 721 mmHg 16%
15:00 +40°C° 0 mm 5 mps 720 mmHg 15%
16:00 +37°C° 0 mm 4 mps 720 mmHg 17%
17:00 +35°C° 0 mm 3 mps 720 mmHg 20%
18:00 +33°C° 0 mm 3 mps 719 mmHg 22%
19:00 +31°C° 0 mm 3 mps 719 mmHg 23%
20:00 +29°C° 0 mm 3 mps 720 mmHg 24%
21:00 +28°C° 0 mm 3 mps 720 mmHg 26%
22:00 +28°C° 0 mm 3 mps 720 mmHg 27%
23:00 +27°C° 0 mm 4 mps 720 mmHg 28%
Show more